Location: Bláznov
(49.5769°N, 15.0528°E)
Time: 11:55:53
(UTC+00:00)

Daily predictions for brighter satellites

Satellite Brightness Start Highest point End
(mag) Time Altitude Azimuth Time Altitude Azimuth Time Altitude Azimuth
Meteor 2-10 4.3 19:28:44 10° N 19:34:09 57° ENE 19:39:19 10° SSE
Cosmos 1340 3.2 19:32:21 10° N 19:35:32 36° ENE 19:38:40 10° SE
FALCON 9 R/B 4.2 19:32:18 10° SW 19:36:14 20° S 19:44:06 10° SE
Cosmos 1743 4.4 19:33:01 10° NNW 19:36:15 31° W 19:39:28 10° SSW
Meteor 1-11 Rocket 3.8 19:32:00 10° N 19:37:44 79° ENE 19:43:34 10° SSE
Spot 2 Rocket 4.1 19:33:11 10° SE 19:37:58 45° ENE 19:42:46 10° N
Okean-O 3.0 19:34:18 10° S 19:38:40 65° WSW 19:43:05 10° NNW
USA 245 3.1 19:37:09 10° SE 19:39:20 35° ENE 19:41:50 10° N
Landsat 4 4.3 19:36:10 10° SE 19:39:23 36° ENE 19:42:37 10° N
Cosmos 1500 Rocket 3.7 19:35:17 10° N 19:39:34 60° ENE 19:43:49 10° SSE
Cosmos 1697 Rocket 4.3 19:38:39 10° NNW 19:43:14 25° NE 19:47:47 10° E
SPOT 5 2.7 19:39:27 10° SSE 19:43:54 86° W 19:48:16 10° NNW
Cosmos 2221 4.5 19:40:29 10° SW 19:44:22 32° WNW 19:48:17 10° N
Cosmos 1626 4.1 19:46:23 10° E 19:46:55 10° E 19:47:27 10° ENE
Sich 1 3.2 19:43:07 10° N 19:47:29 62° ENE 19:51:48 10° SSE
Meteor 2-9 Rocket 4.4 19:41:51 10° N 19:47:44 75° ENE 19:53:34 10° SSE
Cosmos 1726 2.9 19:47:47 10° NNW 19:50:46 41° W 19:53:41 10° SSW
Cosmos 1805 Rocket 3.6 19:46:48 10° N 19:51:12 67° ENE 19:55:36 10° SSE
Cosmos 1980 Rocket 4.3 19:49:05 10° N 19:52:57 18° NE 19:56:48 10° ENE
Cosmos 1733 3.0 19:52:37 10° N 19:56:07 69° E 19:59:36 10° SSE
Cosmos 1842 Rocket 4.4 19:52:29 10° SSW 19:56:48 54° WNW 20:01:08 10° N
SL-8 R/B 3.6 19:54:45 10° W 19:59:31 79° S 20:04:17 10° E
Ariane Rocket 3.1 19:56:11 10° SSE 20:01:12 67° ENE 20:06:16 10° N
USA 234 4.1 19:55:20 10° ENE 20:01:43 56° NNW 20:08:03 10° W
Cosmos 44 Rocket 4.4 19:57:33 10° NNW 20:02:10 37° NE 20:06:39 10° ESE
Lacrosse 5 rocket 3.2 19:58:43 10° NW 20:02:32 31° N 20:06:16 10° ENE
Meteor 2-4 Rocket 4.4 20:04:44 10° SSE 20:10:13 41° E 20:15:43 10° NNE
CZ-4C R/B 4.4 20:08:46 10° N 20:12:33 49° WNW 20:16:26 10° SW
ERS-1 Rocket 3.2 20:08:40 10° S 20:13:41 74° WSW 20:18:45 10° NNW
SPOT 3 Rocket 3.6 20:10:36 11° SSE 20:15:34 80° ENE 20:20:45 10° NNW
USA 59 Rocket 0.4 20:11:46 10° NW 20:15:38 60° SW 20:20:15 13° SSE
Cosmos 614 Rocket 4.0 20:11:40 10° S 20:16:48 64° ESE 20:21:59 10° NNE
Cosmos 1818 3.7 20:12:55 10° SSW 20:18:10 51° ESE 20:23:29 10° NE
Cosmos 1340 Rocket 2.8 20:14:12 10° S 20:18:12 88° WNW 20:22:12 10° NNE
Lacrosse 4 Rocket 1.3 20:14:08 10° NW 20:18:15 88° WSW 20:21:37 15° SSE
NOSS 2-1 (E) 4.0 20:14:50 10° NW 20:18:42 56° SW 20:23:15 14° SSE
Meteor 1-27 Rocket 3.8 20:15:16 10° SSW 20:20:47 84° WNW 20:26:25 10° N
Resurs 01 Rocket 4.4 20:20:40 10° WSW 20:22:34 12° W 20:24:28 10° WNW
Okean O Rocket 4.3 20:22:38 10° WSW 20:24:58 14° W 20:27:19 10° NW
Terra 2.2 20:24:17 10° S 20:28:56 61° WSW 20:33:38 10° NNW
Cosmos 1805 3.1 20:26:04 10° N 20:29:48 89° E 20:32:42 16° S
Cosmos 1833 Rocket 3.5 20:26:09 14° SSE 20:30:09 30° ESE 20:34:59 10° NE
NOSS 2-1 (D) 4.4 20:28:05 10° NW 20:31:51 42° SW 20:35:55 15° SSE
Cosmos 1656 3.6 20:27:12 10° NNW 20:32:42 87° WSW 20:37:08 16° SSE
Cosmos 1766 4.3 20:29:21 10° N 20:32:45 31° ENE 20:34:59 17° SE
Cosmos 1743 Rocket 4.3 20:30:11 10° NNW 20:34:28 50° W 20:38:45 10° SSW
Cosmos 1269 Rocket 4.2 20:32:40 10° S 20:37:45 52° ESE 20:42:52 10° NNE
Cosmos 2082 Rocket 4.1 20:42:09 11° ESE 20:43:49 12° E 20:45:53 10° ENE
Centaur D AC-29 4.5 20:39:01 10° SSW 20:45:58 24° SSE 21:13:31 10° ESE
Cosmos 1553 Rocket 4.5 20:40:24 10° N 20:46:15 46° ENE 20:50:36 18° SE
Cosmos 1470 4.3 20:44:06 10° NNE 20:47:05 22° ENE 20:48:57 16° ESE
DELTA 2 R/B (1) 4.5 20:42:48 10° SW 20:47:25 27° S 20:50:45 15° ESE
Landsat 5 3.2 20:44:21 10° NNE 20:48:09 70° ESE 20:51:04 17° S
Cosmos 1151 Rocket 3.5 20:44:02 10° SSW 20:48:19 62° WNW 20:52:37 10° N
Cosmos 1428 Rocket 4.4 20:43:07 10° S 20:49:13 89° E 20:55:22 10° N
Cosmos 2360 4.2 20:45:05 10° NNW 20:50:51 82° ENE 20:55:00 20° SSE
Cosmos 1975 2.9 20:47:06 10° NNW 20:51:03 71° W 20:53:47 19° S
Cosmos 1992 Rocket 4.4 20:49:33 10° NNW 20:54:39 55° WSW 20:58:33 17° S
GEOS 3 Rocket 4.1 20:53:15 10° NE 20:58:02 37° ESE 21:01:25 17° S
Meteor 1-18 Rocket 4.3 20:52:54 13° S 20:58:15 77° E 21:04:10 10° NNE
MOS 1 Rocket 4.3 20:54:08 12° S 20:58:48 50° W 21:04:03 10° NNW
USA 281 3.3 20:54:10 18° SSE 20:59:17 83° WSW 21:05:56 10° NNW
NOSS 3-3 (A) 3.8 20:58:45 10° SW 21:04:15 86° SE 21:10:45 10° NE
ARIANE 5 R/B 3.1 21:02:57 22° SE 21:05:27 46° ENE 21:09:35 10° N
Cosmos 1092 Rocket 4.1 21:01:47 12° S 21:07:39 87° WNW 21:14:02 10° N
Cosmos 1328 Rocket 3.5 21:05:06 18° S 21:08:17 89° WNW 21:12:37 10° N
CZ-2C R/B 4.1 21:09:15 10° NNE 21:13:33 45° E 21:15:38 26° SSE
BREEZE-M DEB (TANK) 3.8 21:15:39 27° SE 21:15:39 27° SE 21:19:34 10° ENE
MetOp-A 4.4 21:14:04 19° S 21:17:22 54° W 21:22:21 10° NNW
Cosmos 1140 Rocket 3.8 21:14:22 23° S 21:17:24 49° ESE 21:22:26 10° NNE
Cosmos 1515 Rocket 3.7 21:17:03 27° SSE 21:19:11 57° E 21:23:26 10° NNE
Cosmos 1626 2.4 21:17:58 20° SSW 21:19:58 51° WNW 21:23:08 10° N
NOSS 3-4 (A) 3.9 21:13:27 10° NW 21:20:14 82° NE 21:26:14 18° SE
NOSS 3-4 (C) 3.9 21:13:33 10° NW 21:20:19 81° NE 21:26:21 18° SE
Cosmos 1707 3.2 21:26:10 32° SE 21:27:13 40° E 21:30:39 10° NNE
Cosmos 1697 Rocket 2.7 21:22:12 10° NNW 21:27:51 79° WSW 21:31:08 26° SSE
BREEZE-M DEB (TANK) 2.5 21:20:47 10° WSW 21:29:10 80° SSE 21:31:54 10° ENE
Cosmos 1470 Rocket 3.7 21:24:53 10° NNW 21:29:18 68° W 21:31:41 26° S
PSLV R/B 4.2 21:25:24 10° NNE 21:29:20 47° E 21:30:49 32° SSE
Cosmos 1869 Rocket 4.3 21:26:44 10° N 21:30:55 41° ENE 21:32:56 25° SE
Cosmos 1633 Rocket 4.0 21:27:59 10° NNW 21:32:08 41° W 21:34:53 19° SSW
Cosmos 1441 Rocket 3.9 21:33:08 10° N 21:36:31 38° ENE 21:37:42 28° ESE
Orbus 7S? 3.1 21:32:05 10° SW 21:37:11 66° SE 21:40:07 10° ENE
NOSS 3-3 (C) 4.2 21:32:32 10° SW 21:38:03 67° NW 21:44:40 10° NE
Cosmos 1980 Rocket 2.4 21:32:22 10° NNW 21:38:05 67° ENE 21:41:37 24° SE
Lacrosse 5 rocket 1.7 21:37:17 10° NW 21:41:28 64° NNE 21:44:16 19° ESE
SL-8 R/B 3.9 21:37:10 10° W 21:41:44 48° SSW 21:43:38 31° SSE
Cosmos 44 Rocket 3.8 21:39:04 10° NW 21:43:47 46° WSW 21:45:49 29° S
USA 234 4.3 21:37:56 10° ENE 21:44:09 47° N 21:50:21 10° WNW
Cosmos 1842 3.0 21:44:35 36° S 21:45:59 88° WNW 21:49:41 10° N
Cosmos 1674 2.5 21:44:53 36° SSW 21:46:12 75° W 21:49:42 10° N
Cosmos 540 Rocket 4.2 21:42:36 10° NNW 21:47:35 45° ENE 21:50:44 21° ESE
Cosmos 1763 Rocket 3.8 21:44:37 10° NNW 21:49:55 62° ENE 21:52:51 26° SE
Cosmos 1933 Rocket 3.6 21:49:53 10° NNW 21:54:15 72° W 21:56:09 33° S
MINOTAUR 4 R/B 3.7 21:52:04 10° N 21:55:01 66° WNW 21:55:42 46° SW
Lacrosse 4 Rocket 3.8 21:54:37 10° W 21:55:52 11° WSW 21:57:07 10° WSW
Cosmos 1417 Rocket 4.5 21:49:34 10° N 21:55:54 88° W 21:59:29 27° S
KORONAS-FOTON 3.8 21:55:04 36° SSW 21:56:28 74° W 22:00:11 10° N
Cosmos 407 Rocket 3.5 21:56:18 27° S 21:59:11 74° ESE 22:04:25 10° NNE
GP-B 4.3 21:55:29 10° NNE 21:59:23 30° E 22:00:59 23° ESE
H-2A R/B 2.5 22:01:54 37° S 22:03:32 76° WSW 22:07:51 10° NNW
SAR-Lupe-3 4.4 22:04:10 48° SSE 22:05:04 79° ENE 22:08:36 10° NNW
Cosmos 2369 3.7 21:59:56 10° NNW 22:05:42 81° ENE 22:08:52 28° SE
Cosmos 1607 4.1 21:59:50 10° SW 22:06:19 79° NW 22:12:52 10° NE
Cosmos 1190 Rocket 4.2 22:10:54 32° SSE 22:13:05 55° ESE 22:18:17 10° NNE
Cosmos 1833 Rocket 3.4 22:08:21 10° SW 22:13:49 52° NW 22:19:20 10° NNE
ALOS 2 2.6 22:12:16 36° SSE 22:14:00 76° ENE 22:18:25 10° N
ATLAS 2AS CENTAUR R/B 4.4 22:10:14 10° NW 22:16:24 32° NNE 22:22:22 10° E
COSMOS 2406 3.5 22:15:18 31° SSE 22:17:46 51° ESE 22:23:19 10° NE
SL-16 R/B 3.3 22:12:36 10° NNW 22:17:56 39° NE 22:22:42 12° ESE
Cosmos 1758 3.5 22:17:07 10° N 22:20:55 57° ENE 22:22:01 40° SE
PSLV R/B 4.4 22:18:03 10° NNE 22:22:13 38° E 22:23:26 31° SE
Cosmos 1470 3.9 22:19:14 10° NNW 22:22:29 30° W 22:23:37 25° SW
Meteor 1-23 Rocket 4.3 22:20:52 32° SSE 22:23:28 65° E 22:29:04 10° NNE
Meteor 1-12 Rocket 4.4 22:17:40 10° N 22:23:39 81° ENE 22:26:45 30° SSE
S3M 4.2 22:19:20 10° NNW 22:25:41 66° W 22:29:12 28° SSW
Cosmos 2082 Rocket 2.2 22:23:57 30° S 22:26:49 70° ESE 22:32:32 10° NNE
Cosmos 2251 Rocket 3.6 22:24:49 24° SSW 22:27:59 75° WNW 22:33:19 10° NNE
CZ-2C R/B 4.4 22:26:20 24° SE 22:29:17 54° ENE 22:49:40 10° N
Cosmos 1707 Rocket 4.0 22:28:05 36° SE 22:29:29 50° E 22:33:50 10° NNE
Cosmos 2360 Rocket 4.0 22:25:05 10° NNW 22:29:57 28° NE 22:34:47 10° ESE
Meteor 2-10 Rocket 3.7 22:30:18 10° NNW 22:36:10 87° WSW 22:38:54 33° S
GEOS 3 Rocket 4.3 22:31:08 10° NE 22:36:13 55° NW 22:41:11 10° WSW
Cosmos 1908 4.4 22:35:19 10° NNW 22:38:25 28° W 22:39:14 25° WSW
ARIANE 5 R/B 4.3 22:40:25 17° WSW 22:42:04 21° W 22:45:23 10° NW
Okean 3 4.1 22:41:11 35° SE 22:42:15 42° E 22:46:09 10° NNE
Meteor 1-4 Rocket 4.3 22:42:38 15° E 22:42:38 15° E 22:44:25 10° NE
Cosmos 2315 Rocket 4.2 22:40:01 10° NNW 22:46:17 67° W 22:49:34 30° SSW
H-2A R/B 2.4 22:44:04 10° NNE 22:48:24 52° E 22:49:42 38° SSE
USA 267 4.1 22:43:41 10° ENE 22:49:19 30° SE 22:51:04 26° SSE
Cosmos 1315 Rocket 4.4 22:49:16 20° ESE 22:50:15 22° E 22:53:21 10° NE
Cosmos 2237 4.4 22:47:13 10° NNW 22:52:59 72° ENE 22:56:34 24° SE
Cosmos 1346 Rocket 2.6 22:54:04 10° NNW 22:57:59 90° E 22:58:57 50° SSE
Cosmos 1908 Rocket 4.4 22:54:03 10° N 22:58:16 41° ENE 23:00:17 26° SE
SL-4 R/B 4.0 23:02:20 16° ESE 23:02:20 16° ESE 23:04:06 10° E
Cosmos 1733 Rocket 3.1 22:57:31 10° NNW 23:01:51 64° W 23:03:12 41° SSW
Cosmos 2278 3.7 22:58:13 10° NNW 23:03:58 87° WSW 23:07:02 29° SSE
Cosmos 1400 Rocket 3.2 23:02:59 36° SW 23:04:17 53° WNW 23:08:11 10° N
Cosmos 1300 3.0 23:02:42 10° NNW 23:06:08 45° W 23:06:40 41° WSW
Cosmos 2322 Rocket 2.6 23:07:13 10° NNW 23:12:49 59° ENE 23:17:17 16° SE
Cosmos 841 Rocket 3.4 23:08:20 10° NNW 23:13:37 83° WSW 23:16:05 33° SSE
Meteor 1-21 4.3 23:11:02 32° SSW 23:13:51 82° WNW 23:19:40 10° N
Cosmos 1242 Rocket 4.2 23:19:14 15° E 23:19:24 16° E 23:21:13 10° NE
Lacrosse 5 rocket 2.4 23:16:00 10° WNW 23:19:04 27° WSW 23:19:04 27° WSW
Okean 1-7 3.1 23:18:10 40° SSE 23:19:35 68° E 23:23:54 10° NNE
Cosmos 2228 Rocket 3.8 23:19:15 29° SW 23:21:08 46° WNW 23:25:31 10° N
Cosmos 1980 Rocket 3.6 23:17:09 10° NW 23:21:35 24° WSW 23:23:22 20° SW
Cosmos 1741 Rocket 4.5 23:19:46 31° SSE 23:21:51 49° ESE 23:26:56 10° NNE
USA 234 3.6 23:20:11 10° ESE 23:26:42 70° NNE 23:33:13 10° WNW
SL-27 R/B 4.1 23:27:58 16° E 23:27:58 16° E 23:29:38 10° ENE
Cosmos 2333 Rocket 2.8 23:22:44 10° NNW 23:28:24 57° NE 23:33:45 11° SE
Cosmos 1356 Rocket 3.8 23:27:09 34° SW 23:28:35 53° WNW 23:32:41 10° N
Cosmos 1953 2.1 23:27:07 10° N 23:31:02 88° W 23:32:08 46° S
Genesis I 3.0 23:33:03 52° SSE 23:33:27 57° SE 23:36:58 10° NE
BREEZE-M DEB (TANK) 4.4 23:34:39 28° SE 23:34:42 28° SE 23:39:31 10° ENE
GP-B 4.3 23:32:38 10° NNW 23:36:33 31° WNW 23:38:18 23° WSW
Cosmos 1703 Rocket 3.6 23:38:29 37° S 23:40:11 74° E 23:44:39 10° NNE
Cosmos 1455 1.8 23:39:03 10° NNW 23:42:31 75° W 23:43:13 53° SSW
Cosmos 1300 Rocket 4.1 23:40:28 10° N 23:44:42 53° ENE 23:47:00 25° SE
Aureole 3 4.0 23:44:34 27° W 23:45:10 29° WNW 23:48:07 10° N
SJ 16-02 2.2 23:45:36 28° SSE 23:47:09 38° ESE 23:51:10 10° NE
RESURS DK-1 2.5 23:44:36 10° NNW 23:48:41 71° ENE 23:51:06 23° SE
